User: anonymous   Login
Location: Bonny Doon Airfield
(37.0704°N, 122.1252°W)
Time: 09:46:22
(UTC-07:00)
Language:

N. Korean satellite - Orbit

View from above orbital plane
View from above orbital plane
View from above satellite
View from above satellite

Ground track
Ground track

The orbit data is extracted from the following two-line orbital elements,

1 39026U 12072A   18198.95893170 +.00000977 +00000-0 +39029-4 0  9991
2 39026 097.2099 208.2784 0038131 211.6828 148.2117 15.26836916310299
Epoch (UTC): 17 July 2018 23:00:51
Eccentricity: 0.0038131
inclination: 97.2099°
perigee height: 459 km
apogee height: 511 km
right ascension of ascending node: 208.2784°
argument of perigee: 211.6828°
revolutions per day: 15.26836916
mean anomaly at epoch: 148.2117°
orbit number at epoch: 31029

The dashed part of the orbit path shows where the satellite is in the earth's shadow,  

DLR